Regional Weather Roundup
Issued by NWS Cleveland, OH

Home | Current Version | Previous Version | Graphics & Text | Print | Product List | Glossary On
Versions: 1 2 3 4 5 6 7 8 9 10 11 12 13 14 15 16 17 18 19 20 21 22 23 24 25 26 27 28 29 30 31 32 33 34 35 36 37 38 39 40 41 42 43 44 45 46 47 48 49 50
440
ASUS41 KCLE 250502
RWRCLE
OHIO REGIONAL WEATHER ROUNDUP
NATIONAL WEATHER SERVICE CLEVELAND, OH
100 AM EDT FRI MAY 25 2018

NOTE: "FAIR" INDICATES FEW OR NO CLOUDS BELOW 12,000 FEET WITH NO
SIGNIFICANT WEATHER AND/OR OBSTRUCTIONS TO VISIBILITY.

OHZ001>008-015>018-024>027-034-035-043-044-250600-
   NORTHWEST OHIO

CITY           SKY/WX    TMP DP  RH WIND       PRES   REMARKS
DEFIANCE       FAIR      60  54  80 CALM      30.08S
FINDLAY        FAIR      62  53  72 CALM      30.08S
TOLEDO EXPRESS FAIR      59  56  89 CALM      30.08S
TOLEDO EXEC    FAIR      64  48  56 SE3       30.09S
LIMA           FAIR      65  49  56 S6        30.10R
$$

OHZ009>014-019>023-028>033-038-089-250600-
   NORTHEAST OHIO

CITY           SKY/WX    TMP DP  RH WIND       PRES   REMARKS
CLE-HOPKINS    FAIR      60  51  72 S3        30.11S
CLE-LAKEFRONT  FAIR      66  47  50 SE5       30.08S
CUY CO. ARPT   NOT AVBL
LORAIN-ELYRIA  FAIR      60  48  64 CALM      30.10S
ASHTABULA      FAIR      53  52  96 CALM      30.11S
AKRON-CANTON   FAIR      64  49  57 CALM      30.11S
WOOSTER        FAIR      56  53  90 CALM      30.11S
MANSFIELD      FAIR      62  54  74 CALM      30.11S
YOUNGSTOWN     FAIR      56  52  86 E5        30.10F
$$

OHZ042-051>053-060>062-070>072-077>081-250600-
  SOUTHWEST OHIO

CITY           SKY/WX    TMP DP  RH WIND       PRES   REMARKS
CINC-COVINGTON FAIR      66  55  67 CALM      30.09R
CINC-LUNKEN    FAIR      60  59  96 CALM      30.09R
HAMILTON       FAIR      60  58  92 CALM      30.10R
DAYTON         FAIR      68  53  58 SE3       30.10S
WRIGHT-PAT AFB FAIR      61  54  78 CALM      30.09S
DAYTON GENERAL FAIR      65  54  67 E3        30.09R
WILMINGTON     FAIR      61  55  81 CALM      30.09S
$$

OHZ036-037-039>041-045>050-054>059-063>069-073>076-082>088-250600-
  CENTRAL AND SOUTHEAST OHIO

CITY           SKY/WX    TMP DP  RH WIND       PRES   REMARKS
COLUMBUS       FAIR      64  55  72 CALM      30.08S
OSU AIRPORT    FAIR      61  53  75 CALM      30.09S
BOLTON FIELD   FAIR      60  57  88 CALM      30.09F
RICKENBACK AFB FAIR      63  56  79 MISG      30.08S
NEWARK         FAIR      59  57  93 CALM      30.09S
MARION         FAIR      62  52  69 CALM      30.10S
LANCASTER      FAIR      58  56  93 CALM      30.09F
ZANESVILLE     FAIR      59  55  87 CALM      30.09F
NEW PHILLY     NOT AVBL
$$




USA.gov is the U.S. government's official web portal to all federal, state and local government web resources and services.